User: anonymous   Login
Location: Newark
(46.2144°N, 13.6425°E)
Time: 05:16:59
(UTC+00:00)
Language:

Hubble Space Telescope - Orbit

View from above orbital plane
View from above orbital plane
View from above satellite
View from above satellite

Ground track
Ground track

The orbit data is extracted from the following two-line orbital elements,

1 20580U 90037B   19260.40711132  .00000406  00000-0  13747-4 0  9997
2 20580  28.4703 332.0703 0002828  25.8078  41.0434 15.09266875414609
Epoch (UTC): 17 September 2019 09:46:14
Eccentricity: 0.0002828
inclination: 28.4703°
perigee height: 536 km
apogee height: 540 km
right ascension of ascending node: 332.0703°
argument of perigee: 25.8078°
revolutions per day: 15.09266875
mean anomaly at epoch: 41.0434°
orbit number at epoch: 41460

The dashed part of the orbit path shows where the satellite is in the earth's shadow,  

DLR